Siemreap, Cambodia

3:54 PM +07 on March 25, 2017 (GMT +0700)
Siem Reap

Weather History for VDSR - April, 2013

Change the Weather History Date:

Monday, April 29, 2013

  Actual Average Record
Temperature  
Mean Temperature 87 °F -  
Max Temperature 96 °F - - ()
Min Temperature 78 °F - - ()
Cooling Degree Days 22    
Growing Degree Days 37 (Base 50)    
Moisture  
Dew Point 74 °F    
Average Humidity 70    
Maximum Humidity 89    
Minimum Humidity 37    
Precipitation  
Precipitation 0.00 in - - ()
Sea Level Pressure  
Sea Level Pressure 29.76 in    
Wind  
Wind Speed 4 mph ()    
Max Wind Speed 10 mph    
Max Gust Speed 22 mph    
Visibility 6.1 miles    
Events      
T = Trace of Precipitation, MM = Missing Value Source: Averaged Metar Reports

Daily Weather History Graph

Daily Weather History Graph

Search for Another Location

Airport or City:

Trip Planner

Search our weather history database for the weather conditions in past years. The results will help you decide how hot, cold, wet, or windy it might be!

Date:

Astronomy

Apr. 29, 2013 Rise Set
Actual Time 5:44 AM +07 6:19 PM +07
Civil Twilight 5:22 AM +07 6:41 PM +07
Nautical Twilight 4:56 AM +07 7:07 PM +07
Astronomical Twilight 4:30 AM +07 7:33 PM +07
Moon 10:00 PM +07 (4/29) 8:47 AM +07 (4/29)
Length of Visible Light 13h 19m
Length of Day
12h 35m
Waning Gibbous, 84% of the Moon is Illuminated
Apr 29
Waning Gibbous
May 2
Last Quarter
May 10
New
May 18
First Quarter
May 25
Full

Hourly Weather History & Observations

Time (+07) Temp. Heat Index Dew Point Humidity Pressure Visibility Wind Dir Wind Speed Gust Speed Precip Events Conditions
12:00 AM 80.6 °F 87.1 °F 77.0 °F 89% 29.77 in 6.2 mi SE 3.5 mph - N/A   Scattered Clouds
12:30 AM 80.6 °F 87.1 °F 77.0 °F 89% 29.74 in 6.2 mi SE 2.3 mph - N/A   Scattered Clouds
1:00 AM 80.6 °F 87.1 °F 77.0 °F 89% 29.74 in 6.2 mi ESE 2.3 mph - N/A   Scattered Clouds
7:00 AM 78.8 °F - 75.2 °F 89% 29.77 in 5.6 mi ESE 4.6 mph - N/A   Scattered Clouds
7:30 AM 78.8 °F - 75.2 °F 89% 29.80 in 5.6 mi ESE 4.6 mph - N/A   Scattered Clouds
8:00 AM 80.6 °F 86.2 °F 75.2 °F 84% 29.80 in 5.6 mi ESE 4.6 mph - N/A   Scattered Clouds
8:30 AM 82.4 °F 90.9 °F 77.0 °F 84% 29.83 in 5.6 mi SE 4.6 mph - N/A   Scattered Clouds
9:00 AM 84.2 °F 92.3 °F 75.2 °F 74% 29.83 in 5.6 mi SE 5.8 mph - N/A   Scattered Clouds
9:30 AM 87.8 °F 97.6 °F 75.2 °F 66% 29.83 in 5.6 mi SE 4.6 mph - N/A   Scattered Clouds
10:00 AM 89.6 °F 99.8 °F 75.2 °F 62% 29.83 in 6.2 mi Variable 3.5 mph - N/A   Scattered Clouds
10:30 AM 89.6 °F 99.8 °F 75.2 °F 62% 29.80 in 6.2 mi SSE 4.6 mph - N/A   Scattered Clouds
11:00 AM 91.4 °F 100.1 °F 73.4 °F 55% 29.80 in 6.2 mi SSE 4.6 mph - N/A   Scattered Clouds
11:30 AM 91.4 °F 98.4 °F 71.6 °F 52% 29.80 in 6.2 mi South 4.6 mph - N/A   Scattered Clouds
12:00 PM 91.4 °F 98.4 °F 71.6 °F 52% 29.80 in 6.2 mi Variable 3.5 mph - N/A   Scattered Clouds
12:30 PM 93.2 °F 98.8 °F 69.8 °F 46% 29.77 in 6.2 mi South 5.8 mph - N/A   Scattered Clouds
1:00 PM 95.0 °F 99.5 °F 68.0 °F 41% 29.74 in 6.2 mi WSW 4.6 mph - N/A   Scattered Clouds
1:30 PM 95.0 °F 99.5 °F 68.0 °F 41% 29.71 in 6.2 mi SSE 5.8 mph - N/A   Scattered Clouds
2:00 PM 96.8 °F 101.8 °F 68.0 °F 39% 29.71 in 6.2 mi South 6.9 mph - N/A   Partly Cloudy
3:00 PM 96.8 °F 100.7 °F 66.2 °F 37% 29.68 in 6.2 mi SE 6.9 mph - N/A   Partly Cloudy
4:30 PM 87.8 °F 95.6 °F 73.4 °F 62% 29.71 in 6.2 mi SW 9.2 mph 21.9 mph N/A   Partly Cloudy
5:00 PM 86.0 °F 95.1 °F 75.2 °F 70% 29.71 in 6.2 mi SW 10.4 mph - N/A   Scattered Clouds
5:30 PM 84.2 °F 90.9 °F 73.4 °F 70% 29.71 in 6.2 mi WSW 9.2 mph - N/A   Scattered Clouds
6:00 PM 82.4 °F 88.2 °F 73.4 °F 74% 29.71 in 6.2 mi Variable 2.3 mph - N/A   Mostly Cloudy
6:30 PM 82.4 °F 88.2 °F 73.4 °F 74% 29.74 in 6.2 mi Variable 1.2 mph - N/A   Mostly Cloudy
7:00 PM 82.4 °F 88.2 °F 73.4 °F 74% 29.74 in 6.2 mi Variable 2.3 mph - N/A   Scattered Clouds
7:30 PM 82.4 °F 89.5 °F 75.2 °F 79% 29.74 in 6.2 mi Variable 2.3 mph - N/A   Scattered Clouds
8:00 PM 82.4 °F 88.2 °F 73.4 °F 74% 29.74 in 6.2 mi SSE 3.5 mph - N/A   Scattered Clouds
8:30 PM 82.4 °F 89.5 °F 75.2 °F 79% 29.74 in 6.2 mi Variable 1.2 mph - N/A   Scattered Clouds
9:00 PM 82.4 °F 88.2 °F 73.4 °F 74% 29.74 in 6.2 mi Variable 1.2 mph - N/A   Scattered Clouds
9:30 PM 82.4 °F 89.5 °F 75.2 °F 79% 29.77 in 6.2 mi Variable 1.2 mph - N/A   Scattered Clouds
10:00 PM 82.4 °F 89.5 °F 75.2 °F 79% 29.77 in 6.2 mi Variable 1.2 mph - N/A   Scattered Clouds
10:30 PM 82.4 °F 89.5 °F 75.2 °F 79% 29.77 in 6.2 mi SE 2.3 mph - N/A   Scattered Clouds
11:00 PM 82.4 °F 89.5 °F 75.2 °F 79% 29.77 in 6.2 mi Calm Calm - N/A   Scattered Clouds
11:30 PM 82.4 °F 90.9 °F 77.0 °F 84% 29.77 in 6.2 mi Calm Calm - N/A   Scattered Clouds